Tracking 25744 objects as of 25-Jun-2022
HD Live streaming from Space Station
objects crossing your sky now

STARLINK-3327

Track STARLINK-3327 now!
10-day predictions
STARLINK-3327 is classified as:


NORAD ID: 50819
Int'l Code: 2022-001S
Perigee: 545.4 km
Apogee: 548.4 km
Inclination: 53.2 °
Period: 95.4 minutes
Semi major axis: 6917 km
RCS: Unknown
Launch date: January 6, 2022
Source: United States (US)
Launch site: AIR FORCE EASTERN TEST RANGE (AFETR)
aabbcc
Your satellite tracking list
Your tracking list is empty




NASA's NSSDC Master Catalog

Two Line Element Set (TLE):
1 50819U 22001S   22175.55692758 -.00000443  00000-0 -96912-5 0  9997
2 50819  53.2195 128.0444 0002129  61.2380 298.8826 15.08840463 27187
Source of the keplerian elements: AFSPC